| time (UTC) | temp C | wind direction | speed KPH | gust KPH | rain 1hr cm | rain 24hr cm | rain mn cm | humidity % | barometer mb |
| 20260506233605 | 17 | 301 | 4.8 | 14.5 | 0.00 | 0.00 | 0.00 | 75 | 1018.9 |
| 20260506232915 | 18 | 291 | 4.8 | 16.1 | 0.00 | 0.00 | 0.00 | 74 | 1018.8 |
| 20260506231804 | 18 | 299 | 4.8 | 17.7 | 0.00 | 0.00 | 0.00 | 76 | 1018.9 |
| 20260506231115 | 18 | 305 | 4.8 | 19.3 | 0.00 | 0.00 | 0.00 | 75 | 1018.8 |
| 20260506230005 | 18 | 298 | 6.4 | 17.7 | 0.00 | 0.00 | 0.00 | 75 | 1018.9 |
| 20260506225619 | 18 | 305 | 4.8 | 17.7 | 0.00 | 0.00 | 0.00 | 73 | 1019.0 |
| 20260506224716 | 18 | 292 | 4.8 | 12.9 | 0.00 | 0.00 | 0.00 | 73 | 1019.0 |
| 20260506223604 | 18 | 295 | 4.8 | 14.5 | 0.00 | 0.00 | 0.00 | 74 | 1019.0 |
| 20260506222704 | 18 | 294 | 6.4 | 14.5 | 0.00 | 0.00 | 0.00 | 74 | 1019.2 |
| 20260506222018 | 18 | 286 | 6.4 | 19.3 | 0.00 | 0.00 | 0.00 | 74 | 1019.3 |
| 20260506221115 | 18 | 288 | 6.4 | 16.1 | 0.00 | 0.00 | 0.00 | 73 | 1019.4 |
| 20260506220005 | 19 | 296 | 3.2 | 16.1 | 0.00 | 0.00 | 0.00 | 72 | 1019.5 |
| 20260506215614 | 18 | 294 | 4.8 | 16.1 | 0.00 | 0.00 | 0.00 | 72 | 1019.6 |
| 20260506214717 | 18 | 296 | 4.8 | 16.1 | 0.00 | 0.00 | 0.00 | 72 | 1019.7 |
| 20260506213814 | 18 | 286 | 6.4 | 17.7 | 0.00 | 0.00 | 0.00 | 72 | 1019.9 |
| 20260506212916 | 18 | 294 | 8.0 | 17.7 | 0.00 | 0.00 | 0.00 | 73 | 1019.9 |
| 20260506211804 | 19 | 290 | 6.4 | 14.5 | 0.00 | 0.00 | 0.00 | 71 | 1019.8 |
| 20260506211116 | 20 | 299 | 3.2 | 12.9 | 0.00 | 0.00 | 0.00 | 69 | 1019.9 |
| 20260506210218 | 19 | 317 | 3.2 | 12.9 | 0.00 | 0.00 | 0.00 | 69 | 1019.8 |
| 20260506205405 | 19 | 304 | 3.2 | 14.5 | 0.00 | 0.00 | 0.00 | 70 | 1019.9 |
| 20260506204505 | 19 | 294 | 4.8 | 14.5 | 0.00 | 0.00 | 0.00 | 71 | 1019.9 |
| 20260506203814 | 18 | 294 | 6.4 | 16.1 | 0.00 | 0.00 | 0.00 | 71 | 1020.0 |
| 20260506202704 | 19 | 291 | 6.4 | 16.1 | 0.00 | 0.00 | 0.00 | 69 | 1020.0 |
| 20260506201804 | 19 | 297 | 3.2 | 12.9 | 0.00 | 0.00 | 0.00 | 68 | 1019.9 |
| 20260506201117 | 19 | 302 | 3.2 | 12.9 | 0.00 | 0.00 | 0.00 | 68 | 1020.0 |
| 20260506200005 | 19 | 311 | 4.8 | 14.5 | 0.00 | 0.00 | 0.00 | 68 | 1020.0 |
| 20260506195405 | 18 | 302 | 6.4 | 14.5 | 0.00 | 0.00 | 0.00 | 71 | 1020.0 |
| 20260506194504 | 18 | 290 | 4.8 | 16.1 | 0.00 | 0.00 | 0.00 | 69 | 1020.1 |
| 20260506193815 | 19 | 307 | 4.8 | 12.9 | 0.00 | 0.00 | 0.00 | 69 | 1020.1 |
| 20260506192704 | 19 | 291 | 4.8 | 11.3 | 0.00 | 0.00 | 0.00 | 70 | 1020.2 |
| 20260506192015 | 19 | 302 | 3.2 | 11.3 | 0.00 | 0.00 | 0.00 | 71 | 1020.2 |
| 20260506191117 | 18 | 301 | 4.8 | 14.5 | 0.00 | 0.00 | 0.00 | 70 | 1020.4 |
| 20260506190214 | 19 | 298 | 4.8 | 14.5 | 0.00 | 0.00 | 0.00 | 70 | 1020.4 |
| 20260506185616 | 19 | 292 | 3.2 | 14.5 | 0.00 | 0.00 | 0.00 | 69 | 1020.4 |
| 20260506184718 | 19 | 277 | 3.2 | 14.5 | 0.00 | 0.00 | 0.00 | 70 | 1020.4 |
| 20260506183816 | 19 | 291 | 3.2 | 16.1 | 0.00 | 0.00 | 0.00 | 70 | 1020.4 |
| 20260506182705 | 19 | 291 | 3.2 | 11.3 | 0.00 | 0.00 | 0.00 | 69 | 1020.4 |
| 20260506182015 | 20 | 291 | 3.2 | 17.7 | 0.00 | 0.00 | 0.00 | 69 | 1020.3 |
| 20260506180904 | 19 | 292 | 4.8 | 14.5 | 0.00 | 0.00 | 0.00 | 71 | 1020.2 |
| 20260506180005 | 20 | 297 | 4.8 | 11.3 | 0.00 | 0.00 | 0.00 | 68 | 1020.1 |
| 20260506175617 | 20 | 302 | 3.2 | 11.3 | 0.00 | 0.00 | 0.00 | 68 | 1020.0 |
| 20260506174719 | 20 | 306 | 3.2 | 9.7 | 0.00 | 0.00 | 0.00 | 65 | 1020.1 |
| 20260506173816 | 20 | 304 | 1.6 | 4.8 | 0.00 | 0.00 | 0.00 | 65 | 1019.9 |
| 20260506172704 | 19 | 1 | 1.6 | 6.4 | 0.00 | 0.00 | 0.00 | 67 | 1020.0 |
| 20260506172016 | 19 | 319 | 1.6 | 8.0 | 0.00 | 0.00 | 0.00 | 67 | 1020.0 |
| 20260506171118 | 19 | 82 | 1.6 | 4.8 | 0.00 | 0.00 | 0.00 | 66 | 1020.2 |
| 20260506170005 | 18 | 3 | 1.6 | 11.3 | 0.00 | 0.00 | 0.00 | 68 | 1020.2 |
| 20260506165405 | 18 | 95 | 0.0 | 4.8 | 0.00 | 0.00 | 0.00 | 67 | 1020.2 |
| 20260506164505 | 18 | 123 | 0.0 | 6.4 | 0.00 | 0.00 | 0.00 | 69 | 1020.3 |
| 20260506163604 | 17 | 118 | 3.2 | 8.0 | 0.00 | 0.00 | 0.00 | 72 | 1020.3 |
| 20260506162914 | 17 | 115 | 3.2 | 9.7 | 0.00 | 0.00 | 0.00 | 71 | 1020.4 |
| 20260506162017 | 17 | 116 | 3.2 | 9.7 | 0.00 | 0.00 | 0.00 | 72 | 1020.5 |
| 20260506161119 | 17 | 111 | 1.6 | 6.4 | 0.00 | 0.00 | 0.00 | 72 | 1020.4 |
| 20260506160216 | 17 | 119 | 1.6 | 6.4 | 0.00 | 0.00 | 0.00 | 72 | 1020.5 |
| 20260506155404 | 16 | 114 | 1.6 | 6.4 | 0.00 | 0.00 | 0.00 | 74 | 1020.4 |
| 20260506154505 | 16 | 121 | 1.6 | 6.4 | 0.00 | 0.00 | 0.00 | 75 | 1020.4 |
| 20260506153818 | 16 | 117 | 1.6 | 4.8 | 0.00 | 0.00 | 0.00 | 75 | 1020.5 |
| 20260506152705 | 16 | 111 | 1.6 | 6.4 | 0.00 | 0.00 | 0.00 | 76 | 1020.5 |
| 20260506152017 | 16 | 100 | 0.0 | 1.6 | 0.00 | 0.00 | 0.00 | 77 | 1020.6 |
| 20260506150904 | 15 | 124 | 0.0 | 3.2 | 0.00 | 0.00 | 0.00 | 79 | 1020.7 |
| 20260506150217 | 15 | 126 | 0.0 | 3.2 | 0.00 | 0.00 | 0.00 | 82 | 1020.7 |
| 20260506145619 | 14 | 119 | 0.0 | 1.6 | 0.00 | 0.00 | 0.00 | 82 | 1020.7 |
| 20260506144505 | 13 | 88 | 0.0 | 1.6 | 0.00 | 0.00 | 0.00 | 86 | 1020.7 |
| 20260506143606 | 13 | 95 | 0.0 | 1.6 | 0.00 | 0.00 | 0.00 | 89 | 1020.7 |
| 20260506142705 | 12 | 92 | 0.0 | 1.6 | 0.00 | 0.00 | 0.00 | 93 | 1020.7 |
| 20260506141804 | 11 | 90 | 0.0 | 1.6 | 0.00 | 0.00 | 0.00 | 95 | 1020.6 |
| 20260506141115 | 11 | 74 | 0.0 | 1.6 | 0.00 | 0.00 | 0.00 | 96 | 1020.6 |
| 20260506140005 | 10 | 83 | 0.0 | 1.6 | 0.00 | 0.00 | 0.00 | 96 | 1020.5 |
| 20260506135614 | 10 | 83 | 0.0 | 1.6 | 0.00 | 0.00 | 0.00 | 96 | 1020.4 |
| 20260506134717 | 10 | 88 | 0.0 | 1.6 | 0.00 | 0.00 | 0.00 | 96 | 1020.3 |
| 20260506133605 | 10 | 86 | 0.0 | 1.6 | 0.00 | 0.00 | 0.00 | 95 | 1020.2 |
| 20260506132705 | 9 | 82 | 0.0 | 1.6 | 0.00 | 0.00 | 0.00 | 96 | 1020.2 |
| 20260506131805 | 9 | 88 | 0.0 | 1.6 | 0.00 | 0.00 | 0.00 | 96 | 1020.1 |
| 20260506131116 | 9 | 99 | 0.0 | 1.6 | 0.00 | 0.00 | 0.00 | 96 | 1020.0 |
| 20260506130005 | 8 | 74 | 0.0 | 3.2 | 0.00 | 0.00 | 0.00 | 96 | 1019.9 |
| 20260506125615 | 8 | 77 | 0.0 | 3.2 | 0.00 | 0.00 | 0.00 | 96 | 1019.9 |
| 20260506124717 | 8 | 91 | 0.0 | 1.6 | 0.00 | 0.00 | 0.00 | 96 | 1019.8 |
| 20260506123814 | 8 | 105 | 0.0 | 1.6 | 0.00 | 0.00 | 0.00 | 95 | 1019.8 |
| 20260506122917 | 8 | 109 | 0.0 | 1.6 | 0.00 | 0.00 | 0.00 | 95 | 1019.7 |
| 20260506122014 | 8 | 91 | 0.0 | 1.6 | 0.00 | 0.00 | 0.00 | 95 | 1019.8 |
| 20260506120904 | 8 | 86 | 0.0 | 3.2 | 0.00 | 0.00 | 0.00 | 95 | 1019.7 |
| 20260506120005 | 8 | 107 | 0.0 | 1.6 | 0.00 | 0.00 | 0.00 | 95 | 1019.6 |
| 20260506115615 | 8 | 109 | 0.0 | 1.6 | 0.00 | 0.00 | 0.00 | 95 | 1019.6 |
| 20260506114718 | 8 | 105 | 0.0 | 1.6 | 0.00 | 0.00 | 0.00 | 95 | 1019.6 |
| 20260506113605 | 8 | 102 | 0.0 | 1.6 | 0.00 | 0.00 | 0.00 | 94 | 1019.7 |
| 20260506112917 | 8 | 105 | 0.0 | 1.6 | 0.00 | 0.00 | 0.00 | 94 | 1019.6 |
| 20260506111805 | 8 | 84 | 0.0 | 1.6 | 0.00 | 0.00 | 0.00 | 94 | 1019.6 |
| 20260506111117 | 8 | 94 | 0.0 | 1.6 | 0.00 | 0.00 | 0.00 | 95 | 1019.5 |
| 20260506110005 | 8 | 101 | 0.0 | 3.2 | 0.00 | 0.00 | 0.00 | 95 | 1019.5 |
| 20260506105616 | 8 | 99 | 0.0 | 3.2 | 0.00 | 0.00 | 0.00 | 94 | 1019.6 |
| 20260506104505 | 8 | 102 | 0.0 | 1.6 | 0.00 | 0.00 | 0.00 | 94 | 1019.5 |
| 20260506103816 | 8 | 100 | 0.0 | 1.6 | 0.00 | 0.00 | 0.00 | 94 | 1019.5 |
| 20260506102918 | 8 | 100 | 0.0 | 3.2 | 0.00 | 0.00 | 0.00 | 94 | 1019.5 |
| 20260506101805 | 8 | 96 | 0.0 | 3.2 | 0.00 | 0.00 | 0.00 | 93 | 1019.5 |
| 20260506100904 | 8 | 98 | 0.0 | 1.6 | 0.00 | 0.00 | 0.00 | 93 | 1019.5 |
| 20260506100215 | 9 | 101 | 0.0 | 1.6 | 0.00 | 0.00 | 0.00 | 93 | 1019.6 |
| 20260506095617 | 9 | 99 | 0.0 | 1.6 | 0.00 | 0.00 | 0.00 | 93 | 1019.6 |
| 20260506094505 | 9 | 118 | 0.0 | 1.6 | 0.00 | 0.00 | 0.00 | 93 | 1019.6 |
| 20260506093816 | 9 | 108 | 0.0 | 1.6 | 0.00 | 0.00 | 0.00 | 93 | 1019.7 |
| 20260506092914 | 10 | 97 | 0.0 | 1.6 | 0.00 | 0.00 | 0.00 | 93 | 1019.6 |
| 20260506091806 | 10 | 124 | 0.0 | 1.6 | 0.00 | 0.00 | 0.00 | 92 | 1019.6 |
| 20260506090905 | 10 | 91 | 0.0 | 1.6 | 0.00 | 0.00 | 0.00 | 92 | 1019.6 |
| 20260506090005 | 10 | 91 | 0.0 | 1.6 | 0.00 | 0.00 | 0.00 | 92 | 1019.7 |
| 20260506085405 | 10 | 91 | 0.0 | 1.6 | 0.00 | 0.00 | 0.00 | 92 | 1019.6 |
| 20260506084715 | 10 | 0 | 0.0 | 0.0 | 0.00 | 0.00 | 0.00 | 91 | 1019.6 |
| 20260506083605 | 10 | 102 | 0.0 | 1.6 | 0.00 | 0.00 | 0.00 | 91 | 1019.5 |
| 20260506082914 | 10 | 102 | 0.0 | 1.6 | 0.00 | 0.00 | 0.00 | 91 | 1019.5 |
| 20260506081805 | 11 | 0 | 0.0 | 0.0 | 0.00 | 0.00 | 0.00 | 89 | 1019.5 |
| 20260506080905 | 11 | 0 | 0.0 | 0.0 | 0.00 | 0.00 | 0.00 | 89 | 1019.4 |
| 20260506080216 | 11 | 0 | 0.0 | 0.0 | 0.00 | 0.00 | 0.00 | 88 | 1019.4 |
| 20260506072705 | 12 | 0 | 0.0 | 0.0 | 0.00 | 0.00 | 0.00 | 85 | 1019.1 |
| 20260506071805 | 13 | 0 | 0.0 | 0.0 | 0.00 | 0.00 | 0.00 | 85 | 1019.3 |
| 20260506070905 | 13 | 0 | 0.0 | 0.0 | 0.00 | 0.00 | 0.00 | 85 | 1019.2 |
| 20260506070217 | 13 | 0 | 0.0 | 0.0 | 0.00 | 0.00 | 0.00 | 84 | 1019.1 |
| 20260506061805 | 13 | 0 | 0.0 | 0.0 | 0.00 | 0.00 | 0.00 | 83 | 1019.0 |
| 20260506060905 | 13 | 0 | 0.0 | 0.0 | 0.00 | 0.00 | 0.00 | 82 | 1018.9 |
| 20260506060218 | 13 | 0 | 0.0 | 0.0 | 0.00 | 0.00 | 0.00 | 83 | 1018.8 |
| 20260506050904 | 13 | 216 | 0.0 | 1.6 | 0.00 | 0.00 | 0.00 | 83 | 1018.6 |
| 20260506044717 | 13 | 223 | 0.0 | 1.6 | 0.00 | 0.00 | 0.00 | 83 | 1018.5 |
| 20260506043814 | 13 | 0 | 0.0 | 0.0 | 0.00 | 0.00 | 0.00 | 84 | 1018.4 |
| 20260506042917 | 13 | 0 | 0.0 | 0.0 | 0.00 | 0.00 | 0.00 | 84 | 1018.3 |
| 20260506042014 | 13 | 263 | 0.0 | 1.6 | 0.00 | 0.00 | 0.00 | 84 | 1018.2 |
| 20260506040905 | 13 | 0 | 0.0 | 0.0 | 0.00 | 0.00 | 0.00 | 84 | 1018.1 |
| 20260506040219 | 13 | 302 | 0.0 | 1.6 | 0.00 | 0.00 | 0.00 | 85 | 1018.1 |
| 20260506035404 | 13 | 302 | 0.0 | 1.6 | 0.00 | 0.00 | 0.00 | 85 | 1018.0 |
| 20260506034505 | 13 | 0 | 0.0 | 0.0 | 0.00 | 0.00 | 0.00 | 84 | 1017.9 |
| 20260506033815 | 13 | 0 | 0.0 | 0.0 | 0.00 | 0.00 | 0.00 | 85 | 1017.7 |
| 20260506032917 | 13 | 0 | 0.0 | 0.0 | 0.00 | 0.00 | 0.00 | 85 | 1017.6 |
| 20260506032015 | 13 | 316 | 0.0 | 1.6 | 0.00 | 0.00 | 0.00 | 85 | 1017.6 |
| 20260506030905 | 13 | 276 | 0.0 | 3.2 | 0.00 | 0.00 | 0.00 | 84 | 1017.3 |
| 20260506030005 | 14 | 291 | 0.0 | 1.6 | 0.00 | 0.00 | 0.00 | 83 | 1017.2 |
| 20260506025616 | 14 | 275 | 0.0 | 1.6 | 0.00 | 0.00 | 0.00 | 83 | 1017.1 |
| 20260506024718 | 14 | 278 | 1.6 | 6.4 | 0.00 | 0.00 | 0.00 | 83 | 1017.2 |
| 20260506023605 | 14 | 292 | 1.6 | 6.4 | 0.00 | 0.00 | 0.00 | 81 | 1017.4 |
| 20260506022918 | 14 | 297 | 1.6 | 6.4 | 0.00 | 0.00 | 0.00 | 81 | 1017.4 |
| 20260506022015 | 14 | 303 | 1.6 | 8.0 | 0.00 | 0.00 | 0.00 | 80 | 1017.3 |
| 20260506021118 | 14 | 294 | 1.6 | 4.8 | 0.00 | 0.00 | 0.00 | 78 | 1017.2 |
| 20260506020215 | 15 | 305 | 1.6 | 8.0 | 0.00 | 0.00 | 0.00 | 77 | 1017.1 |
| 20260506015405 | 15 | 283 | 0.0 | 6.4 | 0.00 | 0.00 | 0.00 | 76 | 1017.1 |
| 20260506014714 | 15 | 284 | 1.6 | 6.4 | 0.00 | 0.00 | 0.00 | 75 | 1016.9 |
| 20260506013604 | 15 | 293 | 1.6 | 8.0 | 0.00 | 0.00 | 0.00 | 74 | 1016.9 |
| 20260506012919 | 15 | 310 | 3.2 | 11.3 | 0.00 | 0.00 | 0.00 | 75 | 1016.9 |
| 20260506012016 | 16 | 302 | 3.2 | 9.7 | 0.00 | 0.00 | 0.00 | 73 | 1016.9 |
| 20260506010905 | 16 | 285 | 1.6 | 8.0 | 0.00 | 0.00 | 0.00 | 71 | 1016.8 |
| 20260506010005 | 17 | 278 | 1.6 | 6.4 | 0.00 | 0.00 | 0.00 | 69 | 1016.8 |
| 20260506005404 | 16 | 284 | 3.2 | 9.7 | 0.00 | 0.00 | 0.00 | 69 | 1016.9 |
| 20260506004720 | 16 | 301 | 1.6 | 9.7 | 0.00 | 0.00 | 0.00 | 70 | 1016.8 |
| 20260506003817 | 17 | 281 | 1.6 | 8.0 | 0.00 | 0.00 | 0.00 | 70 | 1016.8 |
| 20260506002914 | 16 | 279 | 1.6 | 8.0 | 0.00 | 0.00 | 0.00 | 71 | 1016.7 |
| 20260506001805 | 16 | 285 | 3.2 | 11.3 | 0.00 | 0.00 | 0.00 | 72 | 1016.8 |
| 20260506000905 | 16 | 288 | 3.2 | 11.3 | 0.00 | 0.00 | 0.00 | 71 | 1016.6 |
| 20260506000005 | 16 | 319 | 1.6 | 11.3 | 0.00 | 0.00 | 0.00 | 71 | 1016.6 |
| 20260505235618 | 16 | 318 | 3.2 | 11.3 | 0.00 | 0.00 | 0.00 | 71 | 1016.5 |
| 20260505234505 | 16 | 296 | 3.2 | 12.9 | 0.00 | 0.00 | 0.00 | 70 | 1016.5 |